Hourly Data Report for April 19, 2003

SHERBROOKE A
QUEBEC

45°26'00.000" N
71°41'00.000" W
241.40 m
7028124
71610
YSC

Download Data

Hourly Data (April 2003)
Hourly Data Report for April 19, 2003
TIME
LST
Temp Definition
°C
Dew Point Definition
°C
Rel Hum Definition
%
Precip. Amount Definition
mm

Wind Dir Definition
10's deg

Wind Spd Definition
km/h
Visibility Definition
km
Stn Press Definition
kPa
Hmdx Definition


Wind Chill Definition


Weather Definition


00:00 0.6 -3.8 72   9 4 15.0 100.13      
01:00 1.4 -3.3 71   11 6 15.0 100.12      
02:00 1.9 -3.9 65   10 6 15.0 100.11      
03:00 2.4 -3.6 65   1 4 15.0 100.12      
04:00 2.9 -2.3 69     0 15.0 100.14      
05:00 2.5 -3.1 67   7 4 15.0 100.17      
06:00 4.2 -2.3 63   12 4 15.0 100.20      
07:00 6.4 -2.4 53     0 24.1 100.21     Mostly Cloudy
08:00 8.5 -1.6 49   3 4 24.1 100.23     Cloudy
09:00 9.8 -1.1 47   7 4 24.1 100.23     Cloudy
10:00 11.1 0.0 46   13 4 24.1 100.19     Cloudy
11:00 11.6 0.5 46   28 4 24.1 100.15     Cloudy
12:00 14.2 1.7 43   10 7 24.1 100.02     Mainly Clear
13:00 16.1 3.8 44   24 4 24.1 99.93     Mostly Cloudy
14:00 16.0 3.5 43   34 9 24.1 99.92     Mostly Cloudy
15:00 16.3 5.0 47   32 9 24.1 99.90     Rain
16:00 15.6 4.7 48   29 7 24.1 99.89     Rain
17:00 14.0 4.8 54   29 4 15.0 99.88      
18:00 13.2 5.4 59   32 4 15.0 99.86      
19:00 12.8 3.4 53   4 7 15.0 99.84      
20:00 12.1 2.9 53   5 7 15.0 99.86     Rain
21:00 11.2 2.9 57   6 9 15.0 99.86      
22:00 10.5 2.8 59   8 9 15.0 99.83      
23:00 9.2 3.3 67   4 4 15.0 99.81      

Notes on Data Quality.

Legend

  • E = Estimated
  • M = Missing
  • NA = Not Available*
  • [empty] = Indicates an unobserved value
Date modified: